Weather History for KDLH - December, 2013

Change the Weather History Date:

Sunday, December 15, 2013

  Actual Average Record
Temperature  
Mean Temperature -10 °F 15 °F  
Max Temperature -3 °F 22 °F 48 °F (1877)
Min Temperature -17 °F 7 °F -25 °F (1926)
Degree Days  
Heating Degree Days 75 50  
Month to date heating degree days 895 716  
Since 1 July heating degree days 2852 2929  
Cooling Degree Days 0 0  
Month to date cooling degree days 0 0  
Year to date cooling degree days 375 204  
Moisture  
Dew Point -18 °F    
Average Humidity 68    
Maximum Humidity 79    
Minimum Humidity 56    
Precipitation  
Precipitation 0.00 in 0.04 in 0.71 in (1927)
Month to date precipitation 2.30 0.62  
Year to date precipitation 29.90 30.37  
Snow  
Snow 0.00 in 0.50 in 7.20 in (1974)
Month to date snowfall 26.6 8.1  
Since 1 July snowfall 31.6 24.2  
Snow Depth 16.00 in    
Sea Level Pressure  
Sea Level Pressure 30.14 in    
Wind  
Wind Speed 10 mph (NNW)    
Max Wind Speed 18 mph    
Max Gust Speed 25 mph    
Visibility 10 miles    
Events      
T = Trace of Precipitation, MM = Missing Value Source: NWS Daily Summary

Daily Weather History Graph

Daily Weather History Graph

Search for Another Location

Airport or City:

Trip Planner

Search our weather history database for the weather conditions in past years. The results will help you decide how hot, cold, wet, or windy it might be!

Date:

Astronomy

Dec. 15, 2013 Rise Set
Actual Time 7:47 AM CST 4:20 PM CST
Civil Twilight 7:12 AM CST 4:56 PM CST
Nautical Twilight 6:33 AM CST 5:34 PM CST
Astronomical Twilight 5:56 AM CST 6:11 PM CST
Moon 3:29 PM CST (12/15) 5:59 AM CST (12/15)
Length of Visible Light 9h 43m
Length of Day
8h 33m
Waxing Gibbous, 98% of the Moon is Illuminated
Dec 15
Waxing Gibbous
Dec 17
Full
Dec 25
Last Quarter
Jan 1
New
Jan 7
First Quarter

Hourly Weather History & Observations

Time (CST) Temp. Windchill Dew Point Humidity Pressure Visibility Wind Dir Wind Speed Gust Speed Precip Events Conditions
12:55 AM -5.1 °F -25.1 °F -11.0 °F 76% 30.05 in 10.0 mi NW 13.8 mph - N/A   Clear
1:55 AM -7.1 °F -27.6 °F -13.0 °F 75% 30.06 in 9.0 mi NW 13.8 mph - N/A   Clear
2:55 AM -9.0 °F -30.9 °F -15.0 °F 75% 30.09 in 10.0 mi NW 15.0 mph - N/A   Clear
3:55 AM -9.9 °F -32.1 °F -17.0 °F 71% 30.09 in 10.0 mi NNW 15.0 mph - N/A   Clear
4:55 AM -11.9 °F -34.6 °F -18.0 °F 74% 30.10 in 10.0 mi NNW 15.0 mph - N/A   Clear
5:55 AM -13.0 °F -34.3 °F -20.0 °F 71% 30.11 in 10.0 mi NW 12.7 mph - N/A   Clear
6:55 AM -15.0 °F -38.5 °F -20.9 °F 75% 30.12 in 10.0 mi NNW 15.0 mph - N/A   Clear
7:55 AM -16.1 °F -39.1 °F -22.0 °F 74% 30.13 in 10.0 mi NW 13.8 mph - N/A   Clear
8:55 AM -15.0 °F -36.8 °F -22.0 °F 71% 30.14 in 10.0 mi NNW 12.7 mph - N/A   Clear
9:55 AM -13.0 °F -36.0 °F -20.9 °F 68% 30.15 in 9.0 mi NNW 15.0 mph 21.9 mph N/A   Clear
10:55 AM -9.9 °F -29.6 °F -20.0 °F 61% 30.16 in 10.0 mi NNW 11.5 mph - N/A   Clear
11:55 AM -8.0 °F -28.8 °F -18.0 °F 61% 30.14 in 10.0 mi NW 13.8 mph - 0.01 in   Clear
12:55 PM -6.0 °F -26.3 °F -17.0 °F 59% 30.14 in 10.0 mi NW 13.8 mph 19.6 mph N/A   Clear
1:55 PM -4.0 °F -23.0 °F -16.1 °F 56% 30.13 in 10.0 mi NNW 12.7 mph - N/A   Clear
2:55 PM -2.9 °F -18.8 °F -15.0 °F 56% 30.14 in 10.0 mi NW 9.2 mph - N/A   Clear
3:55 PM -4.0 °F -17.8 °F -15.0 °F 59% 30.16 in 10.0 mi NNW 6.9 mph - N/A   Clear
4:55 PM -7.1 °F -19.9 °F -16.1 °F 65% 30.17 in 10.0 mi NNW 5.8 mph - N/A   Clear
5:55 PM -8.0 °F -23.9 °F -17.0 °F 65% 30.18 in 10.0 mi NNW 8.1 mph - N/A   Partly Cloudy
6:55 PM -9.0 °F -20.4 °F -17.0 °F 68% 30.20 in 10.0 mi NNW 4.6 mph - N/A   Partly Cloudy
7:55 PM -11.0 °F -24.6 °F -17.0 °F 75% 30.20 in 10.0 mi NNW 5.8 mph - N/A   Clear
8:55 PM -11.0 °F -22.8 °F -18.0 °F 71% 30.20 in 10.0 mi North 4.6 mph - N/A   Clear
9:55 PM -15.0 °F -25.0 °F -22.0 °F 71% 30.20 in 10.0 mi NNW 3.5 mph - N/A   Clear
10:55 PM -17.0 °F - -23.1 °F 74% 30.19 in 10.0 mi Calm Calm - N/A   Mostly Cloudy
11:55 PM -9.0 °F - -16.1 °F 71% 30.18 in 10.0 mi Calm Calm - N/A   Overcast